AO-85 (40967 NORAD) Tracking and Keplerian Element Data

This shows tracking and keplerian element data for the satellite.

Feedback or suggestion? Click here.




ElementValue
Catalog40967
NameAO-85
Epoch Orbit12040
Epoch Day255.50661419
Epoch Year2019
RAAN257.7885
Inclination64.7757
Eccentricity0.0190218
Argument of Perigee175.0656
Mean Anonmoly185.2399
Mean Motion14.75989539
Decay Rate3.6E-07
L11 40967U 15058D 19255.50661419 .00000036 00000 0 22808-4 0 8068
L22 40967 64.7757 257.7885 0190218 175.0656 185.2399 14.75989539120401

Live tracking and technical data element details for AO-85 (NORAD 40967). AO-85 can be tracked NOW for your location showing map with azimuth and elevation plus other details from your city location.

Track the satellite on the map from your city or location and see movement details for azimuth, elevation, latitude, longitude, range, height, and movement on the map or in text.







IsCatalogInMostPopularTable: catalog: 40967, numindb: 362
Update: records affected: 1



GetName: 40967 AO-85

Hit Count: updated at: Thu, 19 Sep 2019 16:46:41 GMT